"Pseudo-MPEC" for A10alOT

Created 2018 Dec 10 10:18:11 UT using Find_Orb

Click here for an explanation of pseudo-MPECs

 
 Astrometry: 
     A10alOT  C2018 12 03%OtAstrometry](9yEkKdF#Sn)redacted;X`KKUFvfBZP2e;ODjT08
     A10alOT  C2018 12 03sp[rclicka`\a=j0GJL'YM$FI^Phere[#ldH6g*/]?\x%:BbJCdNT08
     A10alOT  C2018 12 03.wJ.b^[e*FgAgq*Kjf#o+=lGAi2p9XXj\fjDJcfor/QPmZrGGvp,T08
     A10alOT  C2018 12 03Si,?9yQqj3]41anOptZB6[:]\jTh^puMofF7F4explanationt4yT08

Station data:
(T08) ATLAS-MLO, Mauna Loa  (N19.535772 W155.576400)  US/Hawaii.

Orbital elements:  A10alOT
   Perihelion 2018 Aug 8.759008 +/- 25.4 TT = 18:12:58 (JD 2458339.259008)
Epoch 2018 Dec  3.0 TT = JDT 2458455.5   Earth MOID: 0.0068   Ve: 0.0974
M 131.10373044 +/- 55               (J2000 ecliptic)          AutoNEOCP
n   1.12786141 +/- 0.852            Peri.  216.99450 +/- 60
a   0.91404074 +/- 0.461            Node    72.16076 +/- 28
e   0.1142239 +/- 0.225             Incl.   15.65781 +/- 47
P   0.87/319.18d           H 24.1   G  0.15   U 12.6  SR
q 0.80963541 +/- 0.308    Q 1.01844607 +/- 14.1
From 4 observations 2018 Dec. 3 (34.2 min); mean residual 0".26
Residuals in arcseconds: 
181203 T08  .30-  .21-    181203 T08  .00   .14-    
181203 T08  .46+  .39+    181203 T08  .15-  .04-    

Ephemerides (geocentric):
Date (UTC) HH   RA              Dec         delta   r     elong  mag " sig PA
---- -- -- --  -------------   -----------  ------ ------ -----  --- ---- ---
2018 12 10 10  23 40 22.731   +29 23 27.24  .04035 0.9978 107.7 19.6  22d  76
2018 12 10 11  23 40 16.198   +29 33 55.35  .04052 0.9979 107.7 19.6  22d  76
2018 12 10 12  23 40 09.705   +29 44 18.23  .04069 0.9979 107.7 19.6  22d  75
2018 12 10 13  23 40 03.253   +29 54 35.93  .04086 0.9980 107.7 19.6  22d  75
2018 12 10 14  23 39 56.840   +30 04 48.51  .04103 0.9980 107.7 19.6  22d  75
2018 12 10 15  23 39 50.467   +30 14 56.03  .04120 0.9981 107.7 19.6  22d  75
2018 12 10 16  23 39 44.133   +30 24 58.53  .04137 0.9981 107.6 19.6  22d  75
2018 12 10 17  23 39 37.839   +30 34 56.07  .04154 0.9982 107.6 19.6  22d  75
2018 12 10 18  23 39 31.582   +30 44 48.70  .04171 0.9982 107.6 19.6  22d  75
2018 12 10 19  23 39 25.365   +30 54 36.47  .04189 0.9982 107.6 19.7  22d  75
2018 12 10 20  23 39 19.185   +31 04 19.44  .04206 0.9983 107.6 19.7  22d  75
2018 12 10 21  23 39 13.044   +31 13 57.64  .04223 0.9983 107.6 19.7  22d  74
2018 12 10 22  23 39 06.940   +31 23 31.14  .04241 0.9984 107.6 19.7  22d  74
2018 12 10 23  23 39 00.874   +31 32 59.98  .04258 0.9984 107.6 19.7  22d  74
2018 12 11 00  23 38 54.844   +31 42 24.21  .04275 0.9985 107.6 19.7  22d  74
2018 12 11 01  23 38 48.852   +31 51 43.88  .04293 0.9985 107.6 19.7  22d  74
2018 12 11 02  23 38 42.897   +32 00 59.03  .04310 0.9986 107.5 19.7  23d  74
2018 12 11 03  23 38 36.978   +32 10 09.72  .04328 0.9986 107.5 19.7  23d  74
2018 12 11 04  23 38 31.095   +32 19 15.98  .04345 0.9987 107.5 19.7  23d  74
2018 12 11 05  23 38 25.248   +32 28 17.87  .04363 0.9987 107.5 19.7  23d  74
2018 12 11 06  23 38 19.437   +32 37 15.44  .04380 0.9987 107.5 19.8  23d  73
2018 12 11 07  23 38 13.661   +32 46 08.72  .04398 0.9988 107.5 19.8  23d  73
2018 12 11 08  23 38 07.921   +32 54 57.76  .04416 0.9988 107.5 19.8  23d  73
2018 12 11 09  23 38 02.215   +33 03 42.61  .04433 0.9989 107.5 19.8  23d  73
2018 12 11 10  23 37 56.545   +33 12 23.30  .04451 0.9989 107.4 19.8  23d  73
2018 12 11 11  23 37 50.909   +33 20 59.89  .04469 0.9990 107.4 19.8  23d  73
2018 12 11 12  23 37 45.307   +33 29 32.42  .04486 0.9990 107.4 19.8  23d  73
2018 12 11 13  23 37 39.740   +33 38 00.92  .04504 0.9991 107.4 19.8  23d  72
2018 12 11 14  23 37 34.206   +33 46 25.45  .04522 0.9991 107.4 19.8  23d  72
2018 12 11 15  23 37 28.707   +33 54 46.03  .04540 0.9992 107.4 19.8  23d  72
2018 12 11 16  23 37 23.240   +34 03 02.71  .04558 0.9992 107.4 19.8  23d  72
2018 12 11 17  23 37 17.807   +34 11 15.54  .04576 0.9993 107.3 19.8  23d  72
2018 12 11 18  23 37 12.407   +34 19 24.55  .04594 0.9993 107.3 19.9  23d  72
2018 12 11 19  23 37 07.040   +34 27 29.78  .04611 0.9993 107.3 19.9  23d  72
2018 12 11 20  23 37 01.706   +34 35 31.27  .04629 0.9994 107.3 19.9  23d  72
2018 12 11 21  23 36 56.404   +34 43 29.06  .04647 0.9994 107.3 19.9  23d  71
2018 12 11 22  23 36 51.134   +34 51 23.19  .04665 0.9995 107.3 19.9  23d  71
2018 12 11 23  23 36 45.897   +34 59 13.69  .04683 0.9995 107.3 19.9  24d  71
2018 12 12 00  23 36 40.691   +35 07 00.61  .04701 0.9996 107.2 19.9  24d  71
2018 12 12 01  23 36 35.516   +35 14 43.97  .04719 0.9996 107.2 19.9  24d  71
2018 12 12 02  23 36 30.374   +35 22 23.82  .04738 0.9997 107.2 19.9  24d  71
2018 12 12 03  23 36 25.262   +35 30 00.20  .04756 0.9997 107.2 19.9  24d  71
2018 12 12 04  23 36 20.181   +35 37 33.13  .04774 0.9997 107.2 19.9  24d  70
2018 12 12 05  23 36 15.132   +35 45 02.65  .04792 0.9998 107.2 20.0  24d  70
2018 12 12 06  23 36 10.113   +35 52 28.80  .04810 0.9998 107.2 20.0  24d  70
2018 12 12 07  23 36 05.124   +35 59 51.61  .04828 0.9999 107.1 20.0  24d  70
2018 12 12 08  23 36 00.166   +36 07 11.12  .04847 0.9999 107.1 20.0  24d  70
2018 12 12 09  23 35 55.238   +36 14 27.36  .04865 1.0000 107.1 20.0  24d  70